Regional Weather Roundup
Issued by NWS

Home | Current Version | Previous Version | Graphics & Text | Print | Product List | Glossary On
Versions: 1 2 3 4 5 6 7 8 9 10 11 12 13 14 15 16 17 18 19 20 21 22 23 24 25 26 27 28 29 30 31 32 33 34 35 36 37 38 39 40 41 42 43 44 45 46 47 48 49 50
000
ASUS45 KBOI 251710
RWRID
WEATHER ROUNDUP FOR IDAHO
NATIONAL WEATHER SERVICE BOISE ID
1100 AM MDT SAT APR 25 2015

NOTE: "FAIR" INDICATES FEW OR NO CLOUDS BELOW 12000 FEET
WITH NO SIGNIFICANT WEATHER AND/OR OBSTRUCTIONS TO VISIBILITY

IDZ012-014-251800-
SOUTHWEST IDAHO


CITY           SKY/WX    TMP DP  RH WIND       PRES   REMARKS
BOISE          SUNNY     51  33  50 NW10      29.81S
CALDWELL       SUNNY     54  30  40 NW9       29.83F
$$

IDZ016-017-251800-
SOUTHCENTRAL IDAHO


CITY           SKY/WX    TMP DP  RH WIND       PRES   REMARKS
BURLEY         PTSUNNY   48  30  49 N5        29.79F
JEROME         MOSUNNY   46  31  55 VRB3      29.81S
TWIN FALLS     PTSUNNY   48  31  51 N6        29.80F
$$

IDZ019>023-251800-
SOUTHEAST IDAHO


CITY           SKY/WX    TMP DP  RH WIND       PRES   REMARKS
IDAHO FALLS    PTSUNNY   46  32  58 SW13      29.82S
POCATELLO      MOSUNNY   49  32  52 W8        29.82F
REXBURG        PTSUNNY   44  35  70 SW15      29.80F
$$

IDZ006-010-011-018-031-032-251800-
CENTRAL IDAHO MOUNTAINS


CITY           SKY/WX    TMP DP  RH WIND       PRES   REMARKS
MCCALL         PTSUNNY   40  28  62 CALM      29.78F
HAILEY         MOSUNNY   43  34  70 SE7       29.80F
STANLEY          N/A     40  27  59 VRB3      29.77F
SALMON         MOSUNNY   45  25  45 NW3       29.81S
CHALLIS        CLOUDY    43  20  39 W3        29.79F
$$

IDZ002-004-006-007-026-251800-
NORTHERN IDAHO


CITY           SKY/WX    TMP DP  RH WIND       PRES   REMARKS
LEWISTON       CLOUDY    48  35  60 W3        29.89S
LOWELL           N/A     50  36  58 CALM      29.87F
COEUR D`ALENE  CLOUDY    45  34  65 S10       29.88S
MULLAN PASS    PTSUNNY   34  26  72 VRB3      29.80S
$$


USA.gov is the U.S. government's official web portal to all federal, state and local government web resources and services.